Regional Weather Roundup
Issued by NWS

Home | Current Version | Previous Version | Graphics & Text | Print | Product List | Glossary On
Versions: 1 2 3 4 5 6 7 8 9 10 11 12 13 14 15 16 17 18 19 20 21 22 23 24 25 26 27 28 29 30 31 32 33 34 35 36 37 38 39 40 41 42 43 44 45 46 47 48 49 50
000
ASUS45 KSLC 271710
RWRUT

UTAH REGIONAL WEATHER ROUNDUP
NATIONAL WEATHER SERVICE SALT LAKE CITY UT
1100 AM MDT WED MAY 27 2015

UTZ001>011-023>025-271800-

NORTHERN UTAH

CITY           SKY/WX    TMP DP  RH WIND       PRES   REMARKS
BRIGHAM CITY   CLOUDY    55  50  82 CALM      30.10S
HILL AFB       PTSUNNY   54  53  98 E8        30.09F
LOGAN          LGT RAIN  50  49  96 E10       30.10R FOG
OGDEN          CLOUDY    55  53  93 SE8       30.08F
PROVO AIRPORT  MOSUNNY   63  50  63 S5        30.11S
SALT LAKE CITY CLOUDY    59  51  75 N9        30.09F
VERNAL         MOSUNNY   59  48  67 VRB6      30.15F
WENDOVER       MOSUNNY   57  48  72 E5        30.08S
HEBER CITY     PTSUNNY   63  43  48 SW13G18   30.11S
WEST JORDAN    CLOUDY    61  48  63 N6        30.10F

$$

UTZ012>022-026-027-271800-

SOUTHERN/CENTRAL UTAH

CITY           SKY/WX    TMP DP  RH WIND       PRES   REMARKS
BLANDING       SUNNY     64  43  45 S5        30.25S
BRYCE CANYON   SUNNY     58  35  42 E7        30.23S
CEDAR CITY     SUNNY     65  39  38 VRB3      30.11S
DELTA          SUNNY     64  44  48 E5        30.10F
HANKSVILLE     MOSUNNY   68  39  34 CALM      30.11F
MILFORD        CLOUDY    63  47  55 S10       30.09S
MOAB/CYNLANDS  SUNNY     68  46  45 E9        30.09F
PRICE          MOSUNNY   61  40  45 S7        30.16S
ST GEORGE      PTSUNNY   73  39  29 CALM      30.03F

$$

REGIONAL REPORTS     COLORADO/ARIZONA

CITY           SKY/WX    TMP DP  RH WIND       PRES   REMARKS
CRAIG, CO      MOSUNNY   62  43  49 W10       30.17S
GRAND JUNCTION SUNNY     65  47  52 SE6       30.12F
RIFLE          SUNNY     61  44  53 CALM      30.16F
MONTROSE       SUNNY     63  44  50 NW8       30.17F
CORTEZ         SUNNY     69  42  37 VRB7      30.16F
PAGE, AZ       PTSUNNY   71  43  36 VRB5      30.09F
GRAND CANYON   MOSUNNY   65  22  19 NW8       30.20S
KINGMAN        MOSUNNY   78  29  16 W6        30.02S
FLAGSTAFF      MOSUNNY   65  25  22 VRB7      30.21F

$$

REGIONAL REPORTS    NEVADA/IDAHO/WYOMING

CITY           SKY/WX    TMP DP  RH WIND       PRES   REMARKS
LAS VEGAS, NV  MOSUNNY   81  33  17 VRB3      29.91F
ELY            MOSUNNY   59  41  51 N14       30.14F
ELKO           SUNNY     60  47  61 CALM      30.07F
POCATELLO, ID  PTSUNNY   60  51  72 E9        30.06S
BURLEY         SUNNY     63  47  55 W6        30.02F
EVANSTON, WY   MOSUNNY  N/A N/A N/A SW9       30.15F
ROCK SPRINGS   SUNNY     55  41  59 W13       30.16F
KEMMERER       PTSUNNY   54  37  54 W5        30.17S

$$



USA.gov is the U.S. government's official web portal to all federal, state and local government web resources and services.